Date String (YYYY-MM-DD hh:mm:ss) UTC,Instrument flags,Ambient pressure (hPa),Sample flow (lpm),Bypass flow (lpm),Sample temperature (°C),Ambient temperature (°C),ASC tube jacket temperature (°C),LED temperature (°C),Box temperature (°C),Sample RH (%),Span deviation,Mass concentration (μg/m³),Mass concentration (μg/m³),Mass concentration (μg/m³)
DateTimeUTC,F1_M11,P_M11,Q1_M11,Q2_M11,T1_M11,T2_M11,T3_M11,T4_M11,T5_M11,U1_M11,ZSPAN_M11,X0_M11,X2_M11,X1_M11
2022-10-04 16:00:00,,0831.6,5.01,0.00,30.1,28.8,00.0,38.7,32.0,20.6,0000.0,0007.56,0004.44,0004.19
2022-10-04 16:01:00,,0831.7,4.99,0.00,30.1,28.9,00.0,38.7,32.0,20.7,0000.0,0007.53,0004.42,0004.18
2022-10-04 16:02:00,,0831.7,5.01,0.00,30.1,28.9,00.0,38.7,32.0,20.6,0000.0,0007.54,0004.41,0004.18
2022-10-04 16:03:00,,0831.7,5.01,0.00,30.1,28.9,00.0,38.8,32.0,20.4,0000.0,0007.67,0004.41,0004.17
2022-10-04 16:04:00,,0831.7,4.99,0.00,30.1,28.9,00.0,38.8,32.0,20.4,0000.0,0007.57,0004.36,0004.15
2022-10-04 16:05:00,,0831.6,5.01,0.00,30.2,28.9,00.0,38.8,32.0,20.7,0000.0,0007.44,0004.32,0004.12
2022-10-04 16:06:00,,0831.6,4.99,0.00,30.2,28.9,00.0,38.8,32.0,21.1,0000.0,0007.44,0004.30,0004.09
2022-10-04 16:07:00,,0831.6,5.01,0.00,30.2,29.0,00.0,38.8,32.0,20.6,0000.0,0007.29,0004.28,0004.07
2022-10-04 16:08:00,,0831.6,4.99,0.00,30.2,29.0,00.0,38.8,32.1,20.5,0000.0,0007.03,0004.26,0004.04
2022-10-04 16:09:00,,0831.6,5.01,0.00,30.2,29.0,00.0,38.8,32.1,20.5,0000.0,0006.66,0004.24,0004.02
2022-10-04 16:10:00,,0831.6,5.00,0.00,30.2,29.0,00.0,38.9,32.1,20.5,0000.0,0006.66,0004.24,0004.01
2022-10-04 16:11:00,,0831.6,5.00,0.00,30.2,29.0,00.0,38.9,32.1,20.9,0000.0,0006.84,0004.28,0004.03
2022-10-04 16:12:00,,0831.7,5.02,0.00,30.3,29.0,00.0,38.9,32.1,20.8,0000.0,0006.97,0004.33,0004.06
2022-10-04 16:13:00,,0831.7,4.98,0.00,30.3,29.1,00.0,38.9,32.1,20.9,0000.0,0006.97,0004.36,0004.09
2022-10-04 16:14:00,,0831.7,5.00,0.00,30.3,29.1,00.0,38.9,32.1,21.2,0000.0,0006.80,0004.41,0004.14
2022-10-04 16:15:00,,0831.7,5.00,0.00,30.3,29.1,00.0,38.9,32.2,21.3,0000.0,0007.03,0004.48,0004.19
2022-10-04 16:16:00,,0831.7,4.99,0.00,30.3,29.1,00.0,38.9,32.2,21.6,0000.0,0007.11,0004.53,0004.23
2022-10-04 16:17:00,,0831.7,5.00,0.00,30.3,29.1,00.0,39.0,32.2,21.7,0000.0,0007.19,0004.58,0004.28
2022-10-04 16:18:00,,0831.6,4.99,0.00,30.4,29.1,00.0,39.0,32.2,21.7,0000.0,0007.35,0004.66,0004.33
2022-10-04 16:19:00,,0831.7,5.01,0.00,30.4,29.2,00.0,39.0,32.2,21.7,0000.0,0007.49,0004.71,0004.37
2022-10-04 16:20:00,,0831.7,4.99,0.00,30.4,29.2,00.0,39.0,32.2,21.5,0000.0,0007.53,0004.77,0004.44
2022-10-04 16:21:00,,0831.6,5.00,0.00,30.4,28.9,00.0,39.0,32.1,22.1,0000.0,0007.62,0004.81,0004.49
2022-10-04 16:22:00,,0831.5,5.00,0.00,30.2,28.1,00.0,39.0,31.8,22.1,0000.0,0007.76,0004.84,0004.54
2022-10-04 16:23:00,,0831.5,5.01,0.00,30.0,27.3,00.0,38.9,31.5,21.9,0000.0,0007.82,0004.91,0004.60
2022-10-04 16:24:00,,0831.6,5.01,0.00,29.8,26.7,00.0,38.8,31.1,22.4,0000.0,0007.93,0004.97,0004.65
2022-10-04 16:25:00,,0831.5,5.00,0.00,29.6,26.2,00.0,38.8,30.8,22.6,0000.0,0008.06,0005.01,0004.69
2022-10-04 16:26:00,,0831.5,4.99,0.00,29.4,25.5,00.0,38.7,30.5,23.0,0000.0,0008.04,0005.04,0004.73
2022-10-04 16:27:00,,0831.5,5.01,0.00,29.1,25.0,00.0,38.5,30.2,23.5,0000.0,0008.07,0005.09,0004.78
2022-10-04 16:28:00,,0831.6,5.00,0.00,28.9,24.7,00.0,38.4,30.0,24.3,0000.0,0008.17,0005.13,0004.81
2022-10-04 16:29:00,,0831.5,4.99,0.00,28.8,24.7,00.0,38.3,29.9,24.4,0000.0,0008.21,0005.16,0004.84
2022-10-04 16:30:00,,0831.5,5.01,0.00,28.6,24.5,00.0,38.2,29.7,24.8,0000.0,0008.14,0005.17,0004.87
2022-10-04 16:31:00,,0831.5,5.00,0.00,28.4,24.4,00.0,38.0,29.6,25.5,0000.0,0008.10,0005.18,0004.87
2022-10-04 16:32:00,,0831.5,5.00,0.00,28.3,24.5,00.0,37.9,29.5,25.2,0000.0,0008.07,0005.20,0004.88
2022-10-04 16:33:00,,0831.5,4.98,0.00,28.2,24.4,00.0,37.8,29.4,25.6,0000.0,0007.88,0005.20,0004.89
2022-10-04 16:34:00,,0831.5,5.00,0.00,28.0,24.4,00.0,37.7,29.3,25.9,0000.0,0007.84,0005.19,0004.89
2022-10-04 16:35:00,,0831.5,5.00,0.00,27.9,24.4,00.0,37.6,29.2,26.2,0000.0,0007.77,0005.19,0004.92
2022-10-04 16:36:00,,0831.6,5.00,0.00,27.8,24.4,00.0,37.5,29.2,26.0,0000.0,0007.70,0005.21,0004.94
2022-10-04 16:37:00,,0831.5,5.00,0.00,27.7,24.3,00.0,37.4,29.1,25.9,0000.0,0007.73,0005.24,0004.96
2022-10-04 16:38:00,,0831.6,5.00,0.00,27.6,24.3,00.0,37.3,29.0,26.2,0000.0,0007.79,0005.27,0004.98
2022-10-04 16:39:00,,0831.5,5.00,0.00,27.5,24.2,00.0,37.2,28.9,26.2,0000.0,0007.70,0005.26,0005.01
2022-10-04 16:40:00,,0831.5,5.01,0.00,27.4,23.9,00.0,37.1,28.8,26.3,0000.0,0007.64,0005.26,0005.03
2022-10-04 16:41:00,,0831.5,5.00,0.00,27.3,23.6,00.0,37.0,28.6,26.6,0000.0,0007.74,0005.31,0005.06
2022-10-04 16:42:00,,0831.5,5.00,0.00,27.2,23.5,00.0,36.9,28.5,26.9,0000.0,0007.81,0005.36,0005.09
2022-10-04 16:43:00,,0831.5,5.01,0.00,27.1,23.4,00.0,36.8,28.5,27.1,-000.6,0007.86,0005.41,0005.15
2022-10-04 16:44:00,,0831.5,5.00,0.00,27.0,23.5,00.0,36.7,28.3,27.2,0000.0,0008.06,0005.48,0005.20
2022-10-04 16:45:00,,0831.5,5.00,0.00,26.9,23.4,00.0,36.6,28.3,27.5,0000.0,0008.18,0005.52,0005.24
2022-10-04 16:46:00,,0831.5,5.00,0.00,26.9,23.4,00.0,36.5,28.2,27.5,-000.7,0008.23,0005.55,0005.26
2022-10-04 16:47:00,,0831.5,5.00,0.00,26.8,23.2,00.0,36.4,28.1,27.8,-001.4,0008.29,0005.59,0005.29
2022-10-04 16:48:00,,0831.5,5.01,0.00,26.7,23.0,00.0,36.3,28.0,27.8,-001.3,0008.34,0005.62,0005.32
2022-10-04 16:49:00,,0831.5,5.00,0.00,26.6,23.1,00.0,36.2,28.0,27.9,-001.6,0008.43,0005.65,0005.35
2022-10-04 16:50:00,,0831.5,4.99,0.00,26.6,23.0,00.0,36.1,28.0,28.1,-001.3,0008.59,0005.71,0005.38
2022-10-04 16:51:00,,0831.5,4.99,0.00,26.5,23.1,00.0,36.0,27.9,28.4,-001.2,0008.73,0005.77,0005.42
2022-10-04 16:52:00,,0831.5,5.00,0.00,26.4,23.0,00.0,35.9,27.8,28.7,-001.2,0008.80,0005.80,0005.44
2022-10-04 16:53:00,,0831.5,5.01,0.00,26.3,22.9,00.0,35.8,27.7,29.1,-000.9,0008.79,0005.81,0005.43
2022-10-04 16:54:00,,0831.4,4.99,0.00,26.3,23.0,00.0,35.8,27.7,29.0,-000.2,0008.82,0005.84,0005.45
2022-10-04 16:55:00,,0831.5,5.00,0.00,26.2,23.1,00.0,35.7,27.7,29.2,-000.5,0008.73,0005.84,0005.47
2022-10-04 16:56:00,,0831.4,5.00,0.00,26.2,23.1,00.0,35.6,27.7,29.1,-000.5,0008.60,0005.86,0005.50
2022-10-04 16:57:00,,0831.4,4.99,0.00,26.1,23.0,00.0,35.6,27.6,29.1,-000.6,0008.78,0005.90,0005.55
2022-10-04 16:58:00,,0831.4,5.01,0.00,26.1,22.9,00.0,35.5,27.5,29.0,-000.2,0009.19,0005.94,0005.57
2022-10-04 16:59:00,,0831.4,5.00,0.00,26.0,22.9,00.0,35.4,27.5,29.2,-000.4,0009.21,0005.97,0005.60
